Simultaneous Nadir Overpasses (SNOs) Predictions

Prediction of SNOs between GOES-14 and AQUA Satellite Orbit:

Table of predicted SNOs for the next 14.0 days since TLE Epoch: 3/14/2025
Index Date Time (GOES-14) GOES-14 Lat,Lon AQUA Lat,Lon Distance(km) Time Diff (sec)
1 03/14/2025 21:38:11 -0.44,-108.08 0.06,-105.84 255.71 80
2 03/15/2025 09:54:51 0.42,-108.10 0.91,-110.52 274.30 80
3 03/17/2025 09:37:54 0.43,-108.12 -0.11,-105.72 274.58 80
4 03/17/2025 21:54:42 -0.41,-108.11 -0.93,-110.42 262.45 80
5 03/19/2025 21:37:43 -0.42,-108.13 0.10,-105.60 286.87 80
6 03/20/2025 09:54:23 0.40,-108.15 0.88,-110.28 243.11 80
7 03/22/2025 09:37:22 0.42,-108.16 -0.13,-105.46 306.72 80
8 03/22/2025 21:54:10 -0.39,-108.15 -0.84,-110.17 230.00 80
9 03/24/2025 21:37:07 -0.41,-108.16 0.17,-105.34 320.52 80
10 03/25/2025 09:53:47 0.39,-108.18 0.76,-110.02 209.34 80
11 03/27/2025 09:36:42 0.41,-108.19 -0.24,-105.18 342.16 80
12 03/27/2025 21:53:28 -0.38,-108.18 -0.72,-109.89 194.00 80
